Theta_e
313 313 313 313 313 313 314 314 314 315 316 317 319 322 326 328 330 330 331 331 332 331 330 335 337 338 340 341 341 338 345 347 345 342 343 340 341 341 343 342 340 337 341 340 338
314 314 313 313 313 313 313 314 314 315 315 317 318 320 324 327 330 330 331 331 331 331 335 337 335 337 339 341 341 341 345 342 339 339 340 341 341 341 345 340 339 339 338 337 338
314 314 314 314 314 313 313 314 315 315 315 316 318 319 322 325 328 333 332 331 332 331 330 334 334 336 338 338 338 340 340 340 340 338 340 340 341 343 343 343 340 339 337 340 341
315 315 315 314 314 314 314 315 317 317 316 316 317 319 321 321 334 334 332 332 332 330 333 335 335 336 337 337 336 340 338 339 339 340 341 341 341 344 344 343 341 340 340 341 342
315 315 315 315 314 314 314 317 318 317 317 316 317 318 319 327 331 333 331 332 332 330 334 334 336 335 336 336 337 339 338 339 340 340 339 341 341 343 343 342 339 340 340 341 342
315 316 316 316 315 314 314 317 318 318 318 318 317 317 319 328 335 332 332 332 333 334 335 335 335 334 335 335 337 338 341 339 339 339 340 343 343 344 345 342 339 340 341 342 343
315 316 317 317 316 314 315 317 318 320 320 319 317 317 324 329 333 335 334 333 335 334 334 334 334 334 335 336 337 339 341 339 339 339 339 341 341 345 344 343 341 341 341 342 341
315 316 318 318 317 314 317 319 319 319 320 319 317 317 326 329 331 335 334 334 334 333 333 334 334 333 335 336 337 340 338 342 339 339 341 341 342 339 344 344 343 342 342 341 342
316 316 317 319 318 315 318 319 319 319 318 318 317 320 329 329 330 332 334 334 334 334 334 334 333 333 335 338 338 339 342 341 341 338 338 342 348 343 344 344 344 343 343 341 340
316 316 317 318 318 315 316 319 321 321 322 317 326 328 327 329 329 332 333 333 333 334 334 334 334 336 337 338 341 340 340 339 339 338 340 341 346 344 342 341 342 343 340 339 341
316 317 317 318 318 315 319 323 325 325 323 325 325 327 329 330 330 332 333 333 333 333 335 335 336 336 338 335 335 335 336 337 339 339 340 342 342 343 342 341 341 339 340 341 342
314 316 318 318 318 318 320 321 320 321 323 325 325 326 328 330 331 332 332 333 333 335 335 336 336 337 337 335 335 335 336 337 338 336 339 341 342 341 341 341 340 341 341 340 342
313 314 317 318 318 320 320 319 318 320 324 325 325 326 327 328 329 331 332 332 334 335 335 336 336 337 337 335 335 335 336 335 335 335 337 339 345 342 338 336 340 340 340 342 341
312 312 314 318 319 319 322 319 319 323 328 327 326 325 326 329 329 332 332 332 334 334 335 335 335 336 335 334 335 336 335 334 334 338 342 340 350 346 343 341 340 340 340 341 340
311 311 313 312 315 320 320 318 319 324 336 329 327 326 327 329 329 332 333 332 333 334 334 334 335 335 335 334 334 335 334 333 339 337 341 341 341 346 338 337 336 339 339 339 338
311 310 312 312 316 320 321 321 323 330 338 328 327 328 329 328 330 331 332 331 331 332 333 333 334 334 334 333 333 334 336 339 341 341 347 342 343 347 344 342 338 339 335 334 335
311 311 311 312 316 317 321 325 332 335 333 330 327 327 328 330 330 331 332 332 331 331 332 333 334 334 333 333 334 335 339 339 342 351 345 342 343 345 340 338 339 335 335 335 335
311 311 312 314 315 318 323 329 335 336 334 330 328 327 328 330 330 330 331 331 332 331 332 334 335 335 334 333 333 334 335 339 342 341 339 341 345 342 337 334 336 334 336 336 337
311 312 315 318 321 322 325 333 339 336 333 330 328 327 328 330 330 330 331 332 333 333 334 334 336 335 334 334 333 334 334 336 341 337 340 344 343 341 337 339 338 337 337 338 338
310 311 315 319 323 324 327 328 332 334 331 331 328 329 329 330 330 331 331 332 332 332 333 334 336 336 334 333 333 333 335 340 338 345 343 344 345 347 342 341 341 339 338 339 338
309 320 321 322 324 325 328 330 331 330 329 331 332 331 331 331 331 330 331 332 332 331 332 333 336 336 335 334 335 335 336 338 340 343 342 342 339 340 338 337 338 337 339 339 337
316 319 323 323 324 325 328 329 328 329 330 331 335 337 334 333 330 330 331 331 330 330 331 332 340 335 334 335 336 335 337 337 339 343 343 342 341 338 337 337 335 336 340 340 336
317 318 320 323 324 326 327 329 328 329 331 331 333 334 335 335 334 331 332 332 331 331 337 336 333 334 337 336 338 335 336 339 337 344 345 338 344 339 336 335 335 340 340 339 336
316 320 319 321 322 327 330 332 328 328 331 333 336 334 335 335 336 337 334 333 331 333 331 338 340 338 338 336 334 338 338 336 336 338 337 335 337 343 340 337 341 340 339 336 335
314 319 322 322 322 324 329 333 329 331 329 332 334 335 334 334 335 335 333 336 334 334 333 335 337 334 334 335 335 333 332 333 334 335 337 337 337 343 341 342 340 342 339 335 335
317 319 325 325 329 330 326 331 331 330 332 332 334 333 334 336 339 345 345 346 338 337 335 340 341 337 335 335 334 333 335 334 333 334 336 338 338 340 335 333 334 338 339 336 335
315 319 320 325 324 329 329 329 330 330 331 333 338 336 336 341 340 339 337 339 342 343 340 347 345 345 339 339 337 340 340 339 339 339 336 335 337 341 341 337 332 336 339 337 335
Wind_Speed
21 20 20 19 18 17 16 14 12 11 11 11 11 9 9 11 9 11 10 3 8 11 11 5 12 12 13 17 19 29 4 11 26 12 14 11 9 10 27 49 23 12 22 20 13
22 22 22 21 20 19 18 14 12 11 11 11 12 10 10 11 12 15 11 8 9 8 5 13 15 7 18 22 11 10 8 11 7 11 7 9 14 9 20 33 3 3 18 15 14
21 21 21 23 20 20 19 14 12 11 11 11 12 11 10 11 15 13 9 5 6 7 6 13 12 15 8 12 5 6 5 13 12 6 7 11 13 21 13 12 21 15 18 16 13
22 22 22 22 22 21 19 14 12 12 10 10 12 11 10 9 4 5 5 4 5 8 10 17 15 16 14 13 5 7 8 7 11 5 11 13 9 16 11 12 20 17 16 14 12
22 23 23 23 23 21 17 13 14 12 10 10 11 11 10 10 18 3 3 4 5 9 10 15 17 14 13 14 7 13 10 15 2 12 9 2 11 7 11 8 5 17 13 12 9
22 22 24 24 24 22 16 14 15 11 9 9 10 11 9 16 5 3 3 4 6 9 12 12 12 14 18 12 10 20 37 42 25 5 12 6 15 2 7 8 8 11 12 11 10
22 22 23 24 23 22 15 14 13 8 8 8 9 9 10 19 2 4 7 6 8 10 13 15 12 15 21 14 20 36 19 5 40 16 11 19 18 13 2 8 12 11 7 4 4
22 23 23 24 24 20 15 13 9 7 5 6 7 7 10 17 10 11 10 10 10 11 13 15 15 15 20 18 19 10 10 8 28 20 10 18 6 33 17 10 10 10 11 7 6
22 23 22 23 24 19 15 15 6 5 3 4 6 7 18 11 14 12 12 13 14 12 14 15 14 19 23 20 11 3 7 12 22 33 27 2 14 27 18 10 11 9 7 9 7
23 23 22 23 23 18 14 10 6 5 3 3 6 7 20 15 16 16 14 13 12 11 16 17 20 15 2 8 16 12 20 19 7 7 23 7 18 13 11 11 9 9 8 10 8
23 23 22 21 21 14 13 13 6 1 8 12 11 20 13 15 16 15 13 11 14 16 15 21 16 2 28 9 12 14 16 16 9 13 17 12 10 6 18 10 9 7 11 9 8
22 23 22 19 17 12 13 11 8 9 11 17 19 22 14 3 11 16 17 14 15 14 19 17 8 12 24 12 15 14 16 14 12 13 7 9 11 16 27 25 11 13 13 10 11
22 23 22 18 12 11 9 6 9 11 8 15 20 18 12 14 18 19 21 16 18 17 16 17 9 10 20 12 16 17 13 15 17 21 5 14 15 11 7 35 33 15 7 12 2
21 22 21 19 6 10 6 8 10 9 5 12 21 20 21 18 19 20 19 17 19 15 16 16 15 10 7 14 17 14 19 21 18 18 10 20 4 7 9 13 25 31 52 13 8
20 20 18 19 17 8 9 12 10 4 5 17 19 10 20 20 20 19 6 12 16 17 9 13 17 16 10 12 15 15 18 16 12 11 7 9 1 3 5 6 23 20 7 4 5
19 18 18 17 16 7 13 13 7 6 8 8 12 13 19 22 23 15 20 15 15 13 16 20 17 17 9 12 14 11 14 2 10 4 6 6 8 3 9 9 18 8 6 2 4
19 16 19 17 12 9 12 10 6 8 7 11 17 16 18 20 20 13 9 13 12 12 14 19 19 18 14 9 18 10 14 9 4 2 5 8 8 8 17 16 26 11 11 5 6
19 17 17 16 11 11 9 9 7 13 8 5 9 15 19 16 18 20 11 15 16 16 15 16 8 10 6 4 8 13 13 7 14 11 13 7 2 2 14 29 38 6 9 5 9
19 15 17 13 9 5 9 9 7 11 5 1 9 12 16 17 11 16 15 14 12 18 12 13 9 10 5 5 12 7 10 13 15 14 4 8 8 11 6 17 34 16 12 8 6
20 16 16 10 10 7 8 13 15 9 8 9 8 11 14 18 14 10 16 15 13 13 9 13 9 9 8 3 11 12 9 7 5 11 7 7 6 6 9 20 14 26 14 10 2
14 8 4 9 6 10 9 16 11 3 5 9 11 9 13 11 13 13 8 10 11 10 10 8 6 13 16 9 13 4 4 1 3 3 2 2 6 6 4 5 14 34 6 9 7
7 7 10 11 8 13 13 21 7 9 8 10 7 11 7 2 5 9 12 6 9 1 10 10 6 9 15 9 14 10 13 12 4 5 4 3 3 13 19 25 36 25 10 9 4
6 16 10 10 7 11 18 21 8 10 11 9 6 9 5 2 4 5 8 8 5 2 2 5 2 7 15 11 3 6 7 18 6 5 12 11 2 19 29 26 30 15 13 14 12
5 4 15 14 20 17 17 14 14 13 10 6 10 4 4 8 3 4 3 6 5 2 5 7 5 8 11 14 10 8 16 16 5 4 10 12 12 8 10 13 28 8 9 12 10
5 8 9 7 15 18 17 16 13 10 13 12 9 11 11 5 10 11 8 11 9 6 2 1 5 11 15 18 18 15 14 16 14 10 11 12 15 14 8 7 13 10 13 5 12
5 7 10 17 11 11 14 12 15 13 11 13 11 13 14 7 3 11 15 12 7 6 8 5 7 12 16 18 17 19 19 13 16 13 9 13 12 3 5 16 16 41 15 8 13
8 12 8 12 12 9 9 14 16 17 5 13 12 7 6 9 10 5 7 6 4 5 6 7 7 8 15 17 13 14 6 18 13 15 16 14 13 7 6 5 24 30 14 9 12
Wind_Direction
5 1 358 356 352 346 340 334 326 310 296 283 280 276 281 297 296 284 287 297 253 283 306 306 266 262 262 257 100 47 56 216 247 110 172 217 121 74 63 31 36 56 106 126 141
2 358 354 353 349 344 339 333 327 313 296 282 275 272 277 291 283 266 260 275 270 292 288 278 313 279 267 257 184 111 221 230 21 28 14 43 102 126 95 127 171 326 106 124 141
360 357 352 349 348 341 338 333 329 316 296 279 268 265 271 290 297 246 197 255 271 293 289 295 281 273 276 310 14 357 71 18 46 357 359 60 67 90 82 127 172 142 127 137 145
356 353 351 348 346 341 336 332 326 316 294 276 263 259 261 286 279 179 150 241 271 294 295 283 277 279 291 293 82 211 78 64 47 30 34 31 78 93 87 65 171 132 139 149 176
351 349 350 348 346 341 337 330 325 314 289 273 257 253 257 261 255 214 186 246 255 278 288 301 304 354 330 337 9 325 38 27 94 69 32 314 54 76 93 105 122 134 153 178 165
347 345 347 347 346 342 337 328 326 311 283 268 248 246 249 256 189 215 213 245 243 263 284 290 332 331 296 321 335 22 36 9 333 12 91 53 27 21 116 144 156 149 187 173 145
342 340 344 345 345 342 335 330 328 316 287 259 238 242 251 238 196 213 213 227 250 267 283 306 327 315 309 306 48 76 63 285 284 278 109 77 26 305 51 181 159 192 184 185 199
338 338 341 342 344 340 336 327 322 339 293 247 226 224 251 237 243 218 221 238 253 267 274 282 297 301 280 50 26 46 5 131 274 271 148 106 204 250 245 177 173 200 196 190 181
337 336 338 340 343 340 336 326 301 318 331 230 212 214 244 223 220 227 225 237 247 250 266 276 282 275 284 18 351 271 223 199 234 351 324 88 180 220 184 193 161 187 188 203 182
335 334 337 338 343 343 336 322 301 278 334 195 216 244 262 221 220 221 225 239 274 258 260 256 260 258 246 166 242 228 237 234 110 213 322 48 104 137 147 163 174 191 179 174 227
333 332 334 336 342 348 3 355 303 240 230 221 175 218 214 226 206 206 213 227 245 262 274 268 258 31 298 338 338 313 320 348 112 155 191 59 89 150 165 143 153 188 179 207 216
330 330 332 334 339 5 348 352 16 331 297 257 256 236 259 295 207 222 223 224 244 250 260 255 266 8 310 317 304 291 308 346 308 1 12 101 63 41 28 322 185 205 176 235 205
327 328 330 331 334 357 334 342 335 329 269 264 226 231 223 225 241 210 211 221 246 243 256 275 268 196 248 295 300 317 317 346 332 325 331 12 58 51 54 287 314 325 225 179 258
323 326 330 329 327 324 339 334 330 321 273 217 201 222 220 214 228 234 206 227 244 256 268 273 281 267 300 294 283 308 347 331 329 360 46 1 68 81 239 284 320 97 251 179 143
319 321 322 323 317 316 325 325 319 290 259 141 185 191 206 208 216 222 223 220 251 275 259 269 287 314 281 316 333 315 322 319 20 10 350 351 22 258 304 250 246 267 99 115 207
312 315 311 317 311 334 317 312 305 236 241 158 139 186 197 206 227 214 204 229 263 270 279 287 284 289 275 283 302 301 288 228 52 26 339 205 175 267 228 235 253 169 96 193 243
307 306 299 296 275 284 314 306 236 247 121 154 180 192 202 198 222 211 192 220 230 240 250 257 251 245 255 312 285 237 299 317 271 36 237 239 232 185 221 242 278 158 164 123 21
305 301 292 283 282 282 298 266 257 245 216 82 190 190 202 201 208 224 217 239 213 244 274 287 335 267 164 252 318 317 299 310 321 327 349 177 95 231 275 306 292 166 129 89 54
309 303 284 278 282 252 264 243 244 345 37 207 221 186 200 208 202 216 209 253 239 210 246 284 317 149 199 307 300 321 319 345 333 289 329 69 5 306 316 277 281 183 120 106 91
315 311 277 243 212 228 246 254 297 308 329 295 226 210 195 205 195 222 214 218 246 279 194 268 311 287 120 221 267 246 294 329 335 316 19 144 207 229 187 238 329 338 137 117 177
311 280 190 190 190 225 237 239 270 89 305 266 276 220 235 198 200 215 230 242 198 246 243 265 271 289 315 278 277 195 231 255 298 311 11 294 124 125 92 162 273 247 142 137 99
286 254 182 185 214 234 245 243 270 279 260 256 277 298 251 63 181 219 220 207 69 236 280 231 228 269 281 333 36 28 336 302 311 336 218 214 166 191 180 206 223 247 140 90 54
259 259 233 205 237 237 242 255 244 256 254 235 256 283 346 136 209 255 109 76 79 216 7 292 261 259 264 236 43 316 270 258 249 230 276 305 99 196 204 214 236 195 128 147 112
287 258 223 221 242 278 287 269 235 217 276 281 296 245 237 262 175 259 210 118 143 196 69 11 300 270 288 315 301 220 235 269 289 256 288 294 333 102 103 78 313 133 138 95 93
237 255 299 211 226 237 253 284 234 207 212 215 248 251 233 240 230 203 253 133 162 162 204 208 261 272 277 285 291 301 289 283 291 287 276 321 336 70 81 148 236 180 111 126 106
264 295 327 279 301 280 228 250 273 235 214 220 227 234 248 233 345 17 11 23 165 145 208 186 266 264 279 283 281 278 290 279 277 291 307 324 300 221 200 7 97 270 137 136 84
255 286 280 283 240 263 241 234 249 256 266 249 317 252 255 32 7 10 350 340 333 315 213 190 251 265 270 287 320 306 302 351 346 338 329 332 335 239 291 159 213 243 151 117 103